Year,Month,Day,Hour,Minute,Value (Times are PST for temperature in C)
2011,03,27,00,00,7.80
2011,03,27,00,02,7.80
2011,03,27,00,03,7.70
2011,03,27,00,05,7.70
2011,03,27,00,06,7.70
2011,03,27,00,07,7.70
2011,03,27,00,08,7.70
2011,03,27,00,10,7.70
2011,03,27,00,11,7.70
2011,03,27,00,12,7.70
2011,03,27,00,13,7.70
2011,03,27,00,15,7.70
2011,03,27,00,16,7.70
2011,03,27,00,17,7.70
2011,03,27,00,19,7.70
2011,03,27,00,20,7.70
2011,03,27,00,21,7.70
2011,03,27,00,22,7.70
2011,03,27,00,23,7.70
2011,03,27,00,24,7.70
2011,03,27,00,25,7.70
2011,03,27,00,26,7.70
2011,03,27,00,28,7.60
2011,03,27,00,29,7.70
2011,03,27,00,30,7.60
2011,03,27,00,31,7.60
2011,03,27,00,32,7.60
2011,03,27,00,33,7.60
2011,03,27,00,34,7.60
2011,03,27,00,35,7.60
2011,03,27,00,36,7.60
2011,03,27,00,38,7.60
2011,03,27,00,39,7.60
2011,03,27,00,40,7.60
2011,03,27,00,41,7.60
2011,03,27,00,42,7.60
2011,03,27,00,43,7.60
2011,03,27,00,44,7.60
2011,03,27,00,45,7.60
2011,03,27,00,46,7.60
2011,03,27,00,47,7.60
2011,03,27,00,48,7.60
2011,03,27,00,49,7.50
2011,03,27,00,50,7.50
2011,03,27,00,51,7.50
2011,03,27,00,53,7.50
2011,03,27,00,54,7.50
2011,03,27,00,55,7.50
2011,03,27,00,56,7.40
2011,03,27,00,58,7.40
2011,03,27,00,59,7.40
2011,03,27,01,00,7.40
2011,03,27,01,01,7.40
2011,03,27,01,03,7.40
2011,03,27,01,04,7.40
2011,03,27,01,05,7.40
2011,03,27,01,06,7.40
2011,03,27,01,08,7.40
2011,03,27,01,09,7.40
2011,03,27,01,10,7.40
2011,03,27,01,11,7.40
2011,03,27,01,13,7.30
2011,03,27,01,14,7.30
2011,03,27,01,15,7.30
2011,03,27,01,17,7.30
2011,03,27,01,18,7.30
2011,03,27,01,19,7.30
2011,03,27,01,20,7.30
2011,03,27,01,22,7.30
2011,03,27,01,23,7.30
2011,03,27,01,24,7.30
2011,03,27,01,25,7.30
2011,03,27,01,27,7.20
2011,03,27,01,28,7.30
2011,03,27,01,29,7.20
2011,03,27,01,30,7.20
2011,03,27,01,31,7.20
2011,03,27,01,33,7.20
2011,03,27,01,34,7.20
2011,03,27,01,35,7.20
2011,03,27,01,37,7.20
2011,03,27,01,38,7.20
2011,03,27,01,39,7.10
2011,03,27,01,40,7.10
2011,03,27,01,41,7.10
2011,03,27,01,43,7.10
2011,03,27,01,44,7.10
2011,03,27,01,45,7.10
2011,03,27,01,46,7.10
2011,03,27,01,47,7.00
2011,03,27,01,48,7.10
2011,03,27,01,50,7.00
2011,03,27,01,51,7.00
2011,03,27,01,53,7.00
2011,03,27,01,54,6.90
2011,03,27,01,55,6.90
2011,03,27,01,56,6.90
2011,03,27,01,58,6.90
2011,03,27,01,59,6.90
2011,03,27,02,00,6.90
2011,03,27,02,01,6.90
2011,03,27,02,02,6.80
2011,03,27,02,03,6.80
2011,03,27,02,05,6.80
2011,03,27,02,06,6.80
2011,03,27,02,07,6.80
2011,03,27,02,08,6.80
2011,03,27,02,10,6.80
2011,03,27,02,11,6.70
2011,03,27,02,12,6.70
2011,03,27,02,13,6.70
2011,03,27,02,15,6.70
2011,03,27,02,16,6.70
2011,03,27,02,17,6.70
2011,03,27,02,18,6.70
2011,03,27,02,20,6.70
2011,03,27,02,21,6.70
2011,03,27,02,22,6.60
2011,03,27,02,23,6.60
2011,03,27,02,24,6.60
2011,03,27,02,25,6.60
2011,03,27,02,26,6.60
2011,03,27,02,27,6.60
2011,03,27,02,29,6.60
2011,03,27,02,30,6.50
2011,03,27,02,31,6.50
2011,03,27,02,32,6.50
2011,03,27,02,34,6.50
2011,03,27,02,35,6.50
2011,03,27,02,36,6.50
2011,03,27,02,37,6.50
2011,03,27,02,39,6.50
2011,03,27,02,40,6.40
2011,03,27,02,41,6.40
2011,03,27,02,42,6.40
2011,03,27,02,44,6.40
2011,03,27,02,45,6.40
2011,03,27,02,46,6.40
2011,03,27,02,47,6.40
2011,03,27,02,49,6.40
2011,03,27,02,50,6.40
2011,03,27,02,51,6.40
2011,03,27,02,52,6.40
2011,03,27,02,54,6.40
2011,03,27,02,55,6.40
2011,03,27,02,56,6.40
2011,03,27,02,58,6.30
2011,03,27,02,59,6.30
2011,03,27,03,00,6.30
2011,03,27,03,01,6.30
2011,03,27,03,03,6.30
2011,03,27,03,04,6.30
2011,03,27,03,05,6.20
2011,03,27,03,06,6.20
2011,03,27,03,08,6.20
2011,03,27,03,09,6.20
2011,03,27,03,10,6.20
2011,03,27,03,11,6.10
2011,03,27,03,12,6.10
2011,03,27,03,14,6.10
2011,03,27,03,15,6.10
2011,03,27,03,16,6.10
2011,03,27,03,17,6.10
2011,03,27,03,19,6.10
2011,03,27,03,20,6.10
2011,03,27,03,21,6.10
2011,03,27,03,22,6.10
2011,03,27,03,24,6.10
2011,03,27,03,25,6.10
2011,03,27,03,26,6.10
2011,03,27,03,27,6.10
2011,03,27,03,29,6.10
2011,03,27,03,30,6.00
2011,03,27,03,31,6.00
2011,03,27,03,32,5.90
2011,03,27,03,33,5.90
2011,03,27,03,34,5.90
2011,03,27,03,35,5.90
2011,03,27,03,36,5.80
2011,03,27,03,37,5.80
2011,03,27,03,38,5.80
2011,03,27,03,39,5.80
2011,03,27,03,40,5.80
2011,03,27,03,41,5.80
2011,03,27,03,42,5.80
2011,03,27,03,43,5.80
2011,03,27,03,44,5.80
2011,03,27,03,45,5.80
2011,03,27,03,46,5.80
2011,03,27,03,47,5.80
2011,03,27,03,48,5.80
2011,03,27,03,49,5.80
2011,03,27,03,50,5.80
2011,03,27,03,51,5.80
2011,03,27,03,52,5.80
2011,03,27,03,53,5.80
2011,03,27,03,54,5.80
2011,03,27,03,55,5.70
2011,03,27,03,56,5.70
2011,03,27,03,57,5.70
2011,03,27,03,58,5.70
2011,03,27,03,59,5.70
2011,03,27,04,00,5.70
2011,03,27,04,01,5.70
2011,03,27,04,02,5.70
2011,03,27,04,03,5.70
2011,03,27,04,04,5.70
2011,03,27,04,05,5.70
2011,03,27,04,06,5.60
2011,03,27,04,07,5.60
2011,03,27,04,08,5.60
2011,03,27,04,09,5.60
2011,03,27,04,10,5.60
2011,03,27,04,11,5.60
2011,03,27,04,12,5.60
2011,03,27,04,13,5.60
2011,03,27,04,14,5.60
2011,03,27,04,15,5.60
2011,03,27,04,16,5.50
2011,03,27,04,17,5.50
2011,03,27,04,18,5.40
2011,03,27,04,19,5.40
2011,03,27,04,21,5.40
2011,03,27,04,22,5.40
2011,03,27,04,23,5.50
2011,03,27,04,24,5.60
2011,03,27,04,25,5.60
2011,03,27,04,26,5.60
2011,03,27,04,27,5.60
2011,03,27,04,28,5.60
2011,03,27,04,29,5.60
2011,03,27,04,31,5.60
2011,03,27,04,32,5.60
2011,03,27,04,33,5.60
2011,03,27,04,35,5.70
2011,03,27,04,36,5.60
2011,03,27,04,37,5.60
2011,03,27,04,38,5.70
2011,03,27,04,40,5.70
2011,03,27,04,41,5.70
2011,03,27,04,42,5.80
2011,03,27,04,43,5.80
2011,03,27,04,44,5.80
2011,03,27,04,46,5.90
2011,03,27,04,47,5.90
2011,03,27,04,48,6.00
2011,03,27,04,49,6.00
2011,03,27,04,50,6.00
2011,03,27,04,52,6.10
2011,03,27,04,53,6.10
2011,03,27,04,54,6.10
2011,03,27,04,55,6.10
2011,03,27,04,57,6.10
2011,03,27,04,58,6.10
2011,03,27,04,59,6.10
2011,03,27,05,00,6.10
2011,03,27,05,02,6.10
2011,03,27,05,03,6.10
2011,03,27,05,04,6.10
2011,03,27,05,05,6.10
2011,03,27,05,07,6.10
2011,03,27,05,08,6.10
2011,03,27,05,09,6.10
2011,03,27,05,10,6.00
2011,03,27,05,12,6.00
2011,03,27,05,13,6.00
2011,03,27,05,14,6.10
2011,03,27,05,16,6.10
2011,03,27,05,17,6.00
2011,03,27,05,18,6.00
2011,03,27,05,19,6.00
2011,03,27,05,20,6.00
2011,03,27,05,22,6.00
2011,03,27,05,23,5.90
2011,03,27,05,24,5.90
2011,03,27,05,25,5.90
2011,03,27,05,27,5.90
2011,03,27,05,28,5.90
2011,03,27,05,29,5.90
2011,03,27,05,30,5.90
2011,03,27,05,31,5.90
2011,03,27,05,33,5.80
2011,03,27,05,34,5.80
2011,03,27,05,35,5.80
2011,03,27,05,36,5.80
2011,03,27,05,38,5.80
2011,03,27,05,39,5.70
2011,03,27,05,40,5.70
2011,03,27,05,41,5.70
2011,03,27,05,43,5.70
2011,03,27,05,44,5.60
2011,03,27,05,45,5.60
2011,03,27,05,46,5.60
2011,03,27,05,48,5.60
2011,03,27,05,49,5.60
2011,03,27,05,50,5.60
2011,03,27,05,51,5.50
2011,03,27,05,53,5.50
2011,03,27,05,54,5.50
2011,03,27,05,55,5.50
2011,03,27,05,56,5.40
2011,03,27,05,57,5.50
2011,03,27,05,58,5.50
2011,03,27,05,59,5.40
2011,03,27,06,00,5.40
2011,03,27,06,01,5.40
2011,03,27,06,03,5.40
2011,03,27,06,04,5.40
2011,03,27,06,05,5.40
2011,03,27,06,06,5.40
2011,03,27,06,08,5.40
2011,03,27,06,09,5.40
2011,03,27,06,10,5.40
2011,03,27,06,11,5.40
2011,03,27,06,13,5.40
2011,03,27,06,14,5.40
2011,03,27,06,15,5.40
2011,03,27,06,16,5.40
2011,03,27,06,18,5.40
2011,03,27,06,19,5.40
2011,03,27,06,20,5.40
2011,03,27,06,21,5.40
2011,03,27,06,23,5.40
2011,03,27,06,24,5.40
2011,03,27,06,25,5.40
2011,03,27,06,27,5.40
2011,03,27,06,28,5.40
2011,03,27,06,29,5.30
2011,03,27,06,30,5.40
2011,03,27,06,31,5.30
2011,03,27,06,32,5.40
2011,03,27,06,33,5.40
2011,03,27,06,34,5.40
2011,03,27,06,36,5.40
2011,03,27,06,37,5.40
2011,03,27,06,38,5.40
2011,03,27,06,40,5.40
2011,03,27,06,41,5.50
2011,03,27,06,42,5.50
2011,03,27,06,43,5.60
2011,03,27,06,44,5.60
2011,03,27,06,45,5.60
2011,03,27,06,46,5.60
2011,03,27,06,47,5.60
2011,03,27,06,49,5.70
2011,03,27,06,50,5.70
2011,03,27,06,51,5.70
2011,03,27,06,52,5.70
2011,03,27,06,54,5.70
2011,03,27,06,55,5.70
2011,03,27,06,56,5.70
2011,03,27,06,57,5.70
2011,03,27,06,59,5.70
2011,03,27,07,00,5.70
2011,03,27,07,01,5.70
2011,03,27,07,02,5.70
2011,03,27,07,04,5.70
2011,03,27,07,05,5.70
2011,03,27,07,06,5.70
2011,03,27,07,07,5.70
2011,03,27,07,09,5.70
2011,03,27,07,10,5.60
2011,03,27,07,11,5.60
2011,03,27,07,13,5.60
2011,03,27,07,14,5.60
2011,03,27,07,15,5.60
2011,03,27,07,16,5.60
2011,03,27,07,18,5.60
2011,03,27,07,19,5.70
2011,03,27,07,20,5.70
2011,03,27,07,22,5.70
2011,03,27,07,23,5.70
2011,03,27,07,24,5.70
2011,03,27,07,25,5.80
2011,03,27,07,27,5.80
2011,03,27,07,28,5.80
2011,03,27,07,29,5.80
2011,03,27,07,30,5.80
2011,03,27,07,32,5.90
2011,03,27,07,33,5.90
2011,03,27,07,34,5.90
2011,03,27,07,36,5.90
2011,03,27,07,37,5.90
2011,03,27,07,38,5.90
2011,03,27,07,39,6.00
2011,03,27,07,40,6.00
2011,03,27,07,41,6.00
2011,03,27,07,42,6.00
2011,03,27,07,43,6.00
2011,03,27,07,44,6.10
2011,03,27,07,46,6.00
2011,03,27,07,47,6.10
2011,03,27,07,48,6.10
2011,03,27,07,49,6.10
2011,03,27,07,51,6.10
2011,03,27,07,52,6.10
2011,03,27,07,53,6.10
2011,03,27,07,54,6.10
2011,03,27,07,56,6.10
2011,03,27,07,57,6.20
2011,03,27,07,58,6.20
2011,03,27,07,59,6.20
2011,03,27,08,00,6.20
2011,03,27,08,01,6.20
2011,03,27,08,02,6.20
2011,03,27,08,03,6.20
2011,03,27,08,05,6.20
2011,03,27,08,06,6.20
2011,03,27,08,07,6.20
2011,03,27,08,08,6.20
2011,03,27,08,10,6.20
2011,03,27,08,11,6.20
2011,03,27,08,12,6.20
2011,03,27,08,13,6.20
2011,03,27,08,15,6.20
2011,03,27,08,16,6.20
2011,03,27,08,17,6.20
2011,03,27,08,18,6.20
2011,03,27,08,20,6.20
2011,03,27,08,21,6.20
2011,03,27,08,22,6.20
2011,03,27,08,23,6.20
2011,03,27,08,25,6.20
2011,03,27,08,26,6.20
2011,03,27,08,27,6.30
2011,03,27,08,28,6.30
2011,03,27,08,30,6.30
2011,03,27,08,31,6.30
2011,03,27,08,32,6.30
2011,03,27,08,34,6.30
2011,03,27,08,35,6.30
2011,03,27,08,36,6.30
2011,03,27,08,37,6.30
2011,03,27,08,39,6.30
2011,03,27,08,40,6.30
2011,03,27,08,41,6.30
2011,03,27,08,43,6.30
2011,03,27,08,44,6.30
2011,03,27,08,45,6.30
2011,03,27,08,46,6.30
2011,03,27,08,47,6.30
2011,03,27,08,49,6.20
2011,03,27,08,50,6.20
2011,03,27,08,51,6.20
2011,03,27,08,53,6.20
2011,03,27,08,54,6.20
2011,03,27,08,55,6.20
2011,03,27,08,56,6.20
2011,03,27,08,58,6.20
2011,03,27,08,59,6.20
2011,03,27,09,00,6.20
2011,03,27,09,01,6.20
2011,03,27,09,03,6.20
2011,03,27,09,04,6.20
2011,03,27,09,05,6.20
2011,03,27,09,06,6.20
2011,03,27,09,08,6.20
2011,03,27,09,09,6.20
2011,03,27,09,10,6.20
2011,03,27,09,11,6.20
2011,03,27,09,13,6.30
2011,03,27,09,14,6.30
2011,03,27,09,15,6.30
2011,03,27,09,16,6.30
2011,03,27,09,17,6.30
2011,03,27,09,19,6.30
2011,03,27,09,20,6.30
2011,03,27,09,21,6.30
2011,03,27,09,22,6.30
2011,03,27,09,24,6.30
2011,03,27,09,25,6.20
2011,03,27,09,26,6.20
2011,03,27,09,27,6.20
2011,03,27,09,28,6.20
2011,03,27,09,30,6.20
2011,03,27,09,31,6.20
2011,03,27,09,32,6.20
2011,03,27,09,34,6.20
2011,03,27,09,35,6.20
2011,03,27,09,36,6.20
2011,03,27,09,37,6.20
2011,03,27,09,38,6.20
2011,03,27,09,39,6.30
2011,03,27,09,40,6.30
2011,03,27,09,41,6.30
2011,03,27,09,43,6.30
2011,03,27,09,44,6.30
2011,03,27,09,45,6.30
2011,03,27,09,47,6.30
2011,03,27,09,48,6.30
2011,03,27,09,49,6.40
2011,03,27,09,50,6.40
2011,03,27,09,51,6.40
2011,03,27,09,52,6.40
2011,03,27,09,53,6.40
2011,03,27,09,54,6.40
2011,03,27,09,55,6.40
2011,03,27,09,57,6.50
2011,03,27,09,58,6.60
2011,03,27,09,59,6.60
2011,03,27,10,00,6.60
2011,03,27,10,02,6.60
2011,03,27,10,03,6.60
2011,03,27,10,04,6.60
2011,03,27,10,05,6.60
2011,03,27,10,06,6.60
2011,03,27,10,07,6.60
2011,03,27,10,08,6.60
2011,03,27,10,09,6.60
2011,03,27,10,11,6.60
2011,03,27,10,12,6.60
2011,03,27,10,13,6.60
2011,03,27,10,14,6.60
2011,03,27,10,15,6.60
2011,03,27,10,16,6.60
2011,03,27,10,17,6.60
2011,03,27,10,18,6.60
2011,03,27,10,19,6.60
2011,03,27,10,21,6.60
2011,03,27,10,22,6.50
2011,03,27,10,23,6.50
2011,03,27,10,24,6.40
2011,03,27,10,25,6.40
2011,03,27,10,26,6.40
2011,03,27,10,27,6.40
2011,03,27,10,28,6.40
2011,03,27,10,29,6.40
2011,03,27,10,30,6.40
2011,03,27,10,31,6.40
2011,03,27,10,32,6.40
2011,03,27,10,33,6.40
2011,03,27,10,35,6.40
2011,03,27,10,36,6.40
2011,03,27,10,37,6.40
2011,03,27,10,38,6.40
2011,03,27,10,40,6.40
2011,03,27,10,41,6.40
2011,03,27,10,42,6.40
2011,03,27,10,43,6.40
2011,03,27,10,45,6.40
2011,03,27,10,46,6.40
2011,03,27,10,47,6.40
2011,03,27,10,49,6.50
2011,03,27,10,50,6.50
2011,03,27,10,51,6.50
2011,03,27,10,52,6.50
2011,03,27,10,54,6.60
2011,03,27,10,55,6.60
2011,03,27,10,56,6.60
2011,03,27,10,57,6.60
2011,03,27,10,59,6.60
2011,03,27,11,00,6.70
2011,03,27,11,01,6.70
2011,03,27,11,03,6.70
2011,03,27,11,04,6.80
2011,03,27,11,05,6.80
2011,03,27,11,06,6.80
2011,03,27,11,07,6.80
2011,03,27,11,08,6.80
2011,03,27,11,09,6.90
2011,03,27,11,10,6.90
2011,03,27,11,12,6.90
2011,03,27,11,13,6.90
2011,03,27,11,14,7.00
2011,03,27,11,15,7.00
2011,03,27,11,17,7.00
2011,03,27,11,18,7.00
2011,03,27,11,19,7.00
2011,03,27,11,20,7.10
2011,03,27,11,22,7.10
2011,03,27,11,23,7.10
2011,03,27,11,24,7.20
2011,03,27,11,26,7.20
2011,03,27,11,27,7.20
2011,03,27,11,28,7.20
2011,03,27,11,29,7.20
2011,03,27,11,31,7.10
2011,03,27,11,32,7.10
2011,03,27,11,33,7.10
2011,03,27,11,34,7.10
2011,03,27,11,36,7.10
2011,03,27,11,37,7.10
2011,03,27,11,38,7.10
2011,03,27,11,39,7.10
2011,03,27,11,40,7.10
2011,03,27,11,41,7.10
2011,03,27,11,42,7.20
2011,03,27,11,43,7.20
2011,03,27,11,44,7.20
2011,03,27,11,45,7.20
2011,03,27,11,46,7.30
2011,03,27,11,47,7.30
2011,03,27,11,48,7.40
2011,03,27,11,49,7.40
2011,03,27,11,50,7.40
2011,03,27,11,51,7.50
2011,03,27,11,52,7.60
2011,03,27,11,53,7.70
2011,03,27,11,54,7.70
2011,03,27,11,55,7.80
2011,03,27,11,56,7.80
2011,03,27,11,57,7.80
2011,03,27,11,58,7.90
2011,03,27,11,59,7.90
2011,03,27,12,00,7.90
2011,03,27,12,01,7.90
2011,03,27,12,02,7.90
2011,03,27,12,03,8.00
2011,03,27,12,04,8.10
2011,03,27,12,05,8.10
2011,03,27,12,06,8.10
2011,03,27,12,07,8.10
2011,03,27,12,08,8.10
2011,03,27,12,10,8.10
2011,03,27,12,11,8.10
2011,03,27,12,12,8.10
2011,03,27,12,13,8.10
2011,03,27,12,14,8.00
2011,03,27,12,15,8.10
2011,03,27,12,16,8.10
2011,03,27,12,17,8.10
2011,03,27,12,18,8.20
2011,03,27,12,19,8.20
2011,03,27,12,20,8.20
2011,03,27,12,21,8.20
2011,03,27,12,22,8.20
2011,03,27,12,23,8.20
2011,03,27,12,24,8.20
2011,03,27,12,25,8.20
2011,03,27,12,26,8.20
2011,03,27,12,27,8.10
2011,03,27,12,28,8.10
2011,03,27,12,29,8.10
2011,03,27,12,30,8.10
2011,03,27,12,31,8.20
2011,03,27,12,32,8.30
2011,03,27,12,34,8.30
2011,03,27,12,35,8.30
2011,03,27,12,36,8.30
2011,03,27,12,37,8.20
2011,03,27,12,39,8.20
2011,03,27,12,40,8.10
2011,03,27,12,41,8.00
2011,03,27,12,42,8.00
2011,03,27,12,44,8.10
2011,03,27,12,45,8.10
2011,03,27,12,46,8.10
2011,03,27,12,47,8.20
2011,03,27,12,49,8.20
2011,03,27,12,50,8.20
2011,03,27,12,51,8.20
2011,03,27,12,52,8.20
2011,03,27,12,54,8.30
2011,03,27,12,55,8.30
2011,03,27,12,56,8.30
2011,03,27,12,58,8.30
2011,03,27,12,59,8.30
2011,03,27,13,00,8.30
2011,03,27,13,02,8.30
2011,03,27,13,03,8.30
2011,03,27,13,04,8.30
2011,03,27,13,05,8.30
2011,03,27,13,06,8.30
2011,03,27,13,08,8.30
2011,03,27,13,09,8.30
2011,03,27,13,10,8.40
2011,03,27,13,11,8.40
2011,03,27,13,12,8.40
2011,03,27,13,14,8.40
2011,03,27,13,15,8.40
2011,03,27,13,16,8.60
2011,03,27,13,17,8.60
2011,03,27,13,18,8.70
2011,03,27,13,20,8.70
2011,03,27,13,21,8.70
2011,03,27,13,22,8.70
2011,03,27,13,24,8.70
2011,03,27,13,25,8.80
2011,03,27,13,26,8.80
2011,03,27,13,27,8.70
2011,03,27,13,29,8.70
2011,03,27,13,30,8.60
2011,03,27,13,31,8.50
2011,03,27,13,32,8.50
2011,03,27,13,33,8.40
2011,03,27,13,34,8.40
2011,03,27,13,35,8.40
2011,03,27,13,36,8.40
2011,03,27,13,37,8.40
2011,03,27,13,38,8.40
2011,03,27,13,39,8.40
2011,03,27,13,40,8.40
2011,03,27,13,41,8.50
2011,03,27,13,42,8.50
2011,03,27,13,43,8.50
2011,03,27,13,44,8.50
2011,03,27,13,45,8.50
2011,03,27,13,46,8.50
2011,03,27,13,47,8.60
2011,03,27,13,48,8.60
2011,03,27,13,49,8.70
2011,03,27,13,50,8.70
2011,03,27,13,51,8.70
2011,03,27,13,52,8.70
2011,03,27,13,53,8.80
2011,03,27,13,54,8.80
2011,03,27,13,55,8.80
2011,03,27,13,56,8.90
2011,03,27,13,57,8.90
2011,03,27,13,58,8.90
2011,03,27,13,59,9.00
2011,03,27,14,00,9.10
2011,03,27,14,01,9.10
2011,03,27,14,02,9.10
2011,03,27,14,03,9.10
2011,03,27,14,04,9.10
2011,03,27,14,05,9.20
2011,03,27,14,06,9.10
2011,03,27,14,07,9.10
2011,03,27,14,08,9.20
2011,03,27,14,09,9.20
2011,03,27,14,10,9.30
2011,03,27,14,11,9.30
2011,03,27,14,12,9.40
2011,03,27,14,13,9.40
2011,03,27,14,14,9.50
2011,03,27,14,15,9.60
2011,03,27,14,16,9.60
2011,03,27,14,17,9.60
2011,03,27,14,18,9.60
2011,03,27,14,19,9.70
2011,03,27,14,20,9.70
2011,03,27,14,21,9.70
2011,03,27,14,22,9.80
2011,03,27,14,23,9.80
2011,03,27,14,24,9.80
2011,03,27,14,25,9.70
2011,03,27,14,26,9.70
2011,03,27,14,27,9.60
2011,03,27,14,28,9.60
2011,03,27,14,29,9.60
2011,03,27,14,30,9.50
2011,03,27,14,31,9.50
2011,03,27,14,32,9.50
2011,03,27,14,34,9.50
2011,03,27,14,35,9.40
2011,03,27,14,36,9.40
2011,03,27,14,37,9.40
2011,03,27,14,39,9.40
2011,03,27,14,40,9.50
2011,03,27,14,41,9.50
2011,03,27,14,42,9.40
2011,03,27,14,43,9.40
2011,03,27,14,44,9.50
2011,03,27,14,45,9.50
2011,03,27,14,46,9.50
2011,03,27,14,48,9.50
2011,03,27,14,49,9.50
2011,03,27,14,50,9.40
2011,03,27,14,51,9.40
2011,03,27,14,52,9.40
2011,03,27,14,54,9.40
2011,03,27,14,55,9.50
2011,03,27,14,56,9.40
2011,03,27,14,57,9.40
2011,03,27,14,59,9.40
2011,03,27,15,00,9.40
2011,03,27,15,01,9.40
2011,03,27,15,03,9.40
2011,03,27,15,04,9.40
2011,03,27,15,05,9.40
2011,03,27,15,06,9.40
2011,03,27,15,08,9.40
2011,03,27,15,09,9.40
2011,03,27,15,10,9.40
2011,03,27,15,11,9.40
2011,03,27,15,13,9.40
2011,03,27,15,14,9.40
2011,03,27,15,15,9.40
2011,03,27,15,17,9.50
2011,03,27,15,18,9.50
2011,03,27,15,19,9.60
2011,03,27,15,20,9.50
2011,03,27,15,22,9.60
2011,03,27,15,23,9.50
2011,03,27,15,24,9.50
2011,03,27,15,25,9.40
2011,03,27,15,27,9.40
2011,03,27,15,28,9.40
2011,03,27,15,29,9.40
2011,03,27,15,30,9.50
2011,03,27,15,32,9.50
2011,03,27,15,33,9.60
2011,03,27,15,34,9.40
2011,03,27,15,35,9.40
2011,03,27,15,37,9.40
2011,03,27,15,38,9.50
2011,03,27,15,39,9.50
2011,03,27,15,40,9.60
2011,03,27,15,41,9.60
2011,03,27,15,42,9.70
2011,03,27,15,44,9.70
2011,03,27,15,45,9.80
2011,03,27,15,46,9.80
2011,03,27,15,47,9.80
2011,03,27,15,48,9.90
2011,03,27,15,49,9.90
2011,03,27,15,50,9.90
2011,03,27,15,51,10.00
2011,03,27,15,53,10.10
2011,03,27,15,54,10.20
2011,03,27,15,55,10.20
2011,03,27,15,56,10.20
2011,03,27,15,57,10.20
2011,03,27,15,58,10.30
2011,03,27,15,59,10.30
2011,03,27,16,00,10.30
2011,03,27,16,01,10.30
2011,03,27,16,02,10.20
2011,03,27,16,03,10.20
2011,03,27,16,04,10.20
2011,03,27,16,05,10.30
2011,03,27,16,06,10.30
2011,03,27,16,07,10.20
2011,03,27,16,08,10.20
2011,03,27,16,09,10.20
2011,03,27,16,11,10.20
2011,03,27,16,12,10.20
2011,03,27,16,13,10.20
2011,03,27,16,14,10.10
2011,03,27,16,16,10.10
2011,03,27,16,17,10.10
2011,03,27,16,18,10.10
2011,03,27,16,19,10.00
2011,03,27,16,21,10.00
2011,03,27,16,22,10.00
2011,03,27,16,23,10.10
2011,03,27,16,25,10.10
2011,03,27,16,26,10.20
2011,03,27,16,27,10.20
2011,03,27,16,28,10.30
2011,03,27,16,29,10.30
2011,03,27,16,31,10.30
2011,03,27,16,32,10.40
2011,03,27,16,33,10.40
2011,03,27,16,34,10.40
2011,03,27,16,36,10.40
2011,03,27,16,37,10.60
2011,03,27,16,38,10.60
2011,03,27,16,39,10.60
2011,03,27,16,41,10.60
2011,03,27,16,42,10.70
2011,03,27,16,43,10.70
2011,03,27,16,44,10.70
2011,03,27,16,45,10.70
2011,03,27,16,47,10.60
2011,03,27,16,48,10.60
2011,03,27,16,49,10.60
2011,03,27,16,50,10.60
2011,03,27,16,51,10.60
2011,03,27,16,53,10.60
2011,03,27,16,54,10.60
2011,03,27,16,55,10.70
2011,03,27,16,57,10.70
2011,03,27,16,58,10.70
2011,03,27,16,59,10.70
2011,03,27,17,00,10.70
2011,03,27,17,02,10.60
2011,03,27,17,03,10.60
2011,03,27,17,04,10.60
2011,03,27,17,05,10.60
2011,03,27,17,07,10.50
2011,03,27,17,08,10.50
2011,03,27,17,09,10.50
2011,03,27,17,10,10.60
2011,03,27,17,12,10.60
2011,03,27,17,13,10.60
2011,03,27,17,14,10.60
2011,03,27,17,15,10.60
2011,03,27,17,17,10.60
2011,03,27,17,18,10.60
2011,03,27,17,19,10.40
2011,03,27,17,20,10.30
2011,03,27,17,21,10.30
2011,03,27,17,23,10.30
2011,03,27,17,24,10.30
2011,03,27,17,25,10.40
2011,03,27,17,26,10.40
2011,03,27,17,28,10.40
2011,03,27,17,29,10.40
2011,03,27,17,30,10.40
2011,03,27,17,31,10.30
2011,03,27,17,33,10.40
2011,03,27,17,34,10.40
2011,03,27,17,35,10.40
2011,03,27,17,36,10.40
2011,03,27,17,38,10.30
2011,03,27,17,39,10.20
2011,03,27,17,40,10.20
2011,03,27,17,41,10.20
2011,03,27,17,42,10.20
2011,03,27,17,43,10.20
2011,03,27,17,44,10.20
2011,03,27,17,45,10.30
2011,03,27,17,47,10.30
2011,03,27,17,48,10.30
2011,03,27,17,49,10.30
2011,03,27,17,50,10.30
2011,03,27,17,51,10.30
2011,03,27,17,52,10.30
2011,03,27,17,53,10.20
2011,03,27,17,54,10.20
2011,03,27,17,55,10.20
2011,03,27,17,56,10.20
2011,03,27,17,57,10.30
2011,03,27,17,58,10.30
2011,03,27,17,59,10.20
2011,03,27,18,00,10.30
2011,03,27,18,01,10.20
2011,03,27,18,02,10.20
2011,03,27,18,04,10.20
2011,03,27,18,05,10.10
2011,03,27,18,06,10.10
2011,03,27,18,07,10.20
2011,03,27,18,08,10.20
2011,03,27,18,09,10.10
2011,03,27,18,10,10.20
2011,03,27,18,11,10.20
2011,03,27,18,13,10.20
2011,03,27,18,14,10.10
2011,03,27,18,15,10.10
2011,03,27,18,17,10.10
2011,03,27,18,18,10.10
2011,03,27,18,19,10.10
2011,03,27,18,20,10.10
2011,03,27,18,21,10.10
2011,03,27,18,22,10.10
2011,03,27,18,23,10.20
2011,03,27,18,24,10.20
2011,03,27,18,25,10.10
2011,03,27,18,26,10.10
2011,03,27,18,27,10.10
2011,03,27,18,28,10.10
2011,03,27,18,29,10.00
2011,03,27,18,30,10.00
2011,03,27,18,31,9.90
2011,03,27,18,32,9.90
2011,03,27,18,33,9.90
2011,03,27,18,34,9.90
2011,03,27,18,35,9.80
2011,03,27,18,37,9.80
2011,03,27,18,38,9.80
2011,03,27,18,39,9.80
2011,03,27,18,40,9.80
2011,03,27,18,41,9.80
2011,03,27,18,42,9.90
2011,03,27,18,43,9.90
2011,03,27,18,44,9.90
2011,03,27,18,45,10.00
2011,03,27,18,46,10.10
2011,03,27,18,47,10.10
2011,03,27,18,48,10.10
2011,03,27,18,49,10.10
2011,03,27,18,50,10.10
2011,03,27,18,51,10.10
2011,03,27,18,52,10.00
2011,03,27,18,53,10.00
2011,03,27,18,54,9.90
2011,03,27,18,55,9.90
2011,03,27,18,56,9.80
2011,03,27,18,57,9.70
2011,03,27,18,58,9.70
2011,03,27,18,59,9.70
2011,03,27,19,00,9.60
2011,03,27,19,01,9.60
2011,03,27,19,02,9.50
2011,03,27,19,03,9.40
2011,03,27,19,04,9.40
2011,03,27,19,05,9.30
2011,03,27,19,06,9.30
2011,03,27,19,07,9.30
2011,03,27,19,08,9.30
2011,03,27,19,10,9.30
2011,03,27,19,11,9.20
2011,03,27,19,12,9.20
2011,03,27,19,13,9.10
2011,03,27,19,14,9.10
2011,03,27,19,15,9.10
2011,03,27,19,16,9.00
2011,03,27,19,17,8.90
2011,03,27,19,18,8.90
2011,03,27,19,20,8.80
2011,03,27,19,21,8.80
2011,03,27,19,22,8.80
2011,03,27,19,23,8.80
2011,03,27,19,24,8.80
2011,03,27,19,25,8.70
2011,03,27,19,26,8.70
2011,03,27,19,27,8.70
2011,03,27,19,28,8.70
2011,03,27,19,29,8.70
2011,03,27,19,30,8.70
2011,03,27,19,31,8.60
2011,03,27,19,33,8.60
2011,03,27,19,34,8.60
2011,03,27,19,35,8.60
2011,03,27,19,36,8.50
2011,03,27,19,38,8.50
2011,03,27,19,39,8.50
2011,03,27,19,40,8.50
2011,03,27,19,41,8.50
2011,03,27,19,42,8.40
2011,03,27,19,43,8.40
2011,03,27,19,44,8.40
2011,03,27,19,45,8.40
2011,03,27,19,47,8.40
2011,03,27,19,48,8.40
2011,03,27,19,49,8.30
2011,03,27,19,50,8.30
2011,03,27,19,52,8.30
2011,03,27,19,53,8.30
2011,03,27,19,54,8.30
2011,03,27,19,56,8.20
2011,03,27,19,57,8.20
2011,03,27,19,58,8.20
2011,03,27,19,59,8.20
2011,03,27,20,00,8.10
2011,03,27,20,01,8.10
2011,03,27,20,02,8.10
2011,03,27,20,04,8.10
2011,03,27,20,05,8.10
2011,03,27,20,06,8.10
2011,03,27,20,07,8.10
2011,03,27,20,09,8.10
2011,03,27,20,10,8.10
2011,03,27,20,11,8.10
2011,03,27,20,12,8.10
2011,03,27,20,14,8.10
2011,03,27,20,15,8.10
2011,03,27,20,16,8.00
2011,03,27,20,17,8.10
2011,03,27,20,18,8.00
2011,03,27,20,20,8.00
2011,03,27,20,21,8.00
2011,03,27,20,22,8.00
2011,03,27,20,23,8.00
2011,03,27,20,24,8.00
2011,03,27,20,25,8.00
2011,03,27,20,26,7.90
2011,03,27,20,28,7.90
2011,03,27,20,29,7.90
2011,03,27,20,30,7.90
2011,03,27,20,31,7.90
2011,03,27,20,32,7.90
2011,03,27,20,33,7.80
2011,03,27,20,34,7.80
2011,03,27,20,35,7.80
2011,03,27,20,36,7.80
2011,03,27,20,38,7.80
2011,03,27,20,39,7.80
2011,03,27,20,40,7.80
2011,03,27,20,41,7.80
2011,03,27,20,42,7.80
2011,03,27,20,44,7.80
2011,03,27,20,45,7.80
2011,03,27,20,46,7.80
2011,03,27,20,47,7.80
2011,03,27,20,49,7.80
2011,03,27,20,50,7.80
2011,03,27,20,51,7.80
2011,03,27,20,52,7.80
2011,03,27,20,53,7.80
2011,03,27,20,54,7.80
2011,03,27,20,55,7.80
2011,03,27,20,56,7.80
2011,03,27,20,57,7.80
2011,03,27,20,58,7.80
2011,03,27,20,59,7.80
2011,03,27,21,00,7.80
2011,03,27,21,01,7.80
2011,03,27,21,02,7.80